GEFSMA_850_meantemp_228.txt.gz
Temperature
18 18 18 18 18 18 18 18 17 17 17 17 17 17 17 17 17 17 17 17 17 17 17 17 17 17 17 17 16 16 16 16 16 16 16 16 16 16 16 16 16 16 15
18 18 18 18 18 17 17 17 17 17 17 17 17 17 17 17 17 17 17 17 17 17 17 17 17 17 17 17 16 16 16 16 16 16 16 16 16 16 16 16 16 16 15
18 18 18 18 18 18 17 17 17 18 17 17 17 17 17 17 17 17 17 17 17 17 17 17 17 17 16 16 16 16 16 16 16 16 16 16 16 16 16 16 16 16 15
18 18 18 18 18 17 18 18 18 18 17 17 17 17 17 17 17 17 17 17 17 17 17 17 16 16 16 16 16 16 16 16 16 16 16 16 16 16 15 15 15 15 15
18 18 18 18 18 18 17 17 18 18 17 17 17 17 17 17 17 17 17 17 17 17 17 17 16 16 16 16 16 16 16 16 16 16 16 15 15 15 15 15 15 15 15
18 18 18 18 18 18 18 18 17 17 17 17 17 17 17 17 17 17 17 17 17 17 17 16 16 16 16 16 16 16 16 16 16 15 15 15 15 15 15 15 15 15 15
18 18 18 18 18 18 18 18 18 17 17 17 17 17 17 17 17 17 17 16 16 16 16 16 16 16 16 16 16 15 15 15 15 15 15 15 15 15 15 15 15 15 15
18 18 18 18 18 18 18 18 18 18 17 17 17 17 16 16 17 17 16 16 16 16 16 16 16 16 16 16 15 15 15 15 15 15 15 15 15 15 15 15 15 14 14
18 18 18 18 18 18 18 18 18 18 17 17 17 17 16 16 16 16 16 16 16 16 16 16 16 16 15 15 15 15 15 15 15 15 15 15 15 14 14 14 14 14 14
18 18 18 18 18 18 18 18 18 17 17 17 17 17 17 17 16 16 16 16 16 16 16 15 15 15 15 15 15 15 15 15 15 15 15 14 14 14 14 14 14 14 14
18 18 18 18 18 18 18 18 17 17 17 17 17 17 17 17 16 16 15 15 15 15 15 15 15 15 15 15 15 15 15 15 14 14 14 14 14 14 14 14 14 14 13
18 18 18 18 18 18 18 18 17 17 17 17 17 17 17 16 16 16 16 15 15 15 15 15 15 15 15 14 14 14 14 14 14 14 14 14 14 14 13 13 13 13 13
18 18 18 18 18 18 18 17 17 17 17 17 17 17 17 16 16 16 16 15 15 14 14 14 14 14 14 14 14 14 14 14 14 14 14 13 13 13 13 13 13 13 12
18 18 18 18 18 17 17 17 17 17 17 17 17 17 16 16 16 16 16 15 15 14 14 14 14 14 14 14 14 14 14 14 13 13 13 13 13 13 13 12 12 12 12
18 18 18 17 17 17 17 17 17 17 17 17 17 16 16 16 16 16 16 16 15 14 13 14 13 13 13 13 13 13 13 13 13 13 13 12 12 12 12 12 12 12 12
17 17 17 17 17 17 17 17 17 16 16 16 16 16 16 16 16 16 15 15 15 15 14 13 13 13 13 13 13 13 13 13 13 12 12 12 12 12 12 12 12 11 11
17 17 17 17 17 17 16 16 16 16 16 16 16 16 16 16 15 15 15 15 15 14 14 13 13 13 13 13 12 12 12 12 12 12 12 12 12 11 11 11 11 11 11
17 17 17 16 16 16 16 16 16 16 16 16 16 16 15 15 15 15 15 15 14 14 14 13 13 12 12 12 12 12 12 12 12 12 12 11 11 11 11 11 10 10 10
17 16 16 16 16 16 16 16 16 16 16 15 15 15 15 15 15 15 15 14 14 14 13 13 13 12 12 12 12 12 11 11 11 11 11 11 11 10 10 10 10 10 10
16 16 16 16 16 16 15 15 15 15 15 15 15 15 15 15 14 14 14 14 13 13 13 13 12 12 12 12 11 11 11 11 11 11 11 10 10 10 10 10 10 9 9
16 16 16 16 16 15 15 15 15 15 15 15 14 14 14 14 14 14 14 13 13 13 13 13 12 12 12 11 11 11 11 11 10 10 10 10 10 10 10 9 9 9 9
16 16 16 15 15 15 15 15 15 15 15 14 14 14 14 13 13 13 13 13 13 13 13 12 12 12 11 11 11 11 11 10 10 10 10 10 9 9 9 9 9 9 8
16 16 15 15 15 15 14 14 14 14 14 14 14 14 13 13 13 13 13 12 12 12 12 12 12 11 11 11 11 11 10 10 10 10 9 9 9 9 9 9 9 8 8
16 16 15 15 15 14 14 14 14 14 14 14 13 13 13 13 13 13 12 12 12 12 12 11 11 11 11 11 11 10 10 10 10 9 9 9 9 9 9 9 8 8 8
15 15 15 15 15 14 14 14 14 14 13 13 13 13 13 12 12 12 12 12 12 11 11 11 11 11 11 11 10 10 10 10 9 9 9 9 9 8 8 8 8 8 8
15 15 15 14 14 14 14 13 13 13 13 13 13 12 12 12 12 12 12 12 11 11 11 11 11 10 10 10 10 10 10 10 9 9 9 9 8 8 8 8 8 8 8

GEFSMA_850_meantemp_234.txt.gz
Temperature
17 17 17 17 17 17 17 17 17 17 17 17 17 17 17 17 17 17 17 17 17 17 17 17 17 17 16 16 16 16 16 16 16 16 16 16 16 16 16 16 16 16 15
17 17 17 17 17 17 17 17 17 17 17 17 17 17 17 17 17 17 17 17 17 17 17 17 17 16 16 16 16 16 16 16 16 16 16 16 16 16 16 16 16 16 15
18 17 17 17 17 17 17 17 17 17 17 17 17 17 17 17 17 17 17 17 17 17 17 17 17 17 16 16 16 16 16 16 16 16 16 16 16 16 16 16 16 15 15
17 18 18 18 18 17 17 17 17 17 17 17 17 17 17 17 17 17 17 17 17 17 17 17 17 17 16 16 16 16 16 16 16 16 16 16 16 15 15 15 15 15 15
18 18 18 18 18 17 17 18 17 17 17 17 17 17 17 17 17 17 17 17 17 16 16 16 17 17 16 16 16 16 16 16 16 16 15 15 15 15 15 15 15 15 15
18 18 18 18 18 18 18 17 17 17 17 17 18 18 17 17 17 17 17 17 17 16 16 16 16 16 16 16 16 16 16 16 16 16 15 15 15 15 15 15 15 15 15
18 18 18 18 18 18 17 17 17 17 17 17 17 17 17 17 17 17 17 17 17 16 16 16 16 16 16 16 16 16 16 16 15 15 15 15 15 15 15 15 15 15 15
18 18 18 18 18 18 17 17 17 17 17 17 17 17 17 17 17 17 16 16 16 16 16 16 16 16 15 15 15 16 16 15 15 15 15 15 15 15 15 15 15 14 14
18 18 18 18 18 17 17 17 17 17 17 17 17 17 18 18 17 16 16 16 16 16 16 16 15 15 15 15 15 15 15 15 15 15 15 15 15 15 14 14 14 14 14
18 18 18 18 18 18 17 17 17 17 17 17 17 17 17 17 17 17 16 16 16 16 15 15 15 15 15 15 15 15 15 15 15 14 14 14 14 14 14 14 14 14 14
18 18 18 18 18 17 17 17 17 17 17 17 17 17 17 17 17 17 16 16 15 15 15 15 15 15 15 14 14 14 15 15 15 14 14 14 14 14 14 14 14 14 13
18 18 18 18 18 18 17 17 17 17 17 17 17 17 17 17 17 17 16 16 15 15 15 15 15 14 14 14 14 14 14 14 14 14 14 14 14 14 13 13 13 13 13
18 18 17 18 17 17 17 17 17 17 17 17 17 17 17 17 17 16 16 16 15 15 15 14 14 14 14 14 14 14 14 14 14 14 14 14 13 13 13 13 13 13 12
18 18 17 17 17 17 17 17 17 17 17 17 17 17 17 16 16 16 16 16 15 15 14 14 14 14 14 13 14 14 13 14 14 14 13 13 13 13 13 13 12 12 12
17 17 17 17 17 17 17 17 17 17 17 17 17 17 16 16 16 16 16 16 16 15 15 14 14 13 13 13 13 13 13 13 13 13 13 13 13 12 12 12 12 12 12
17 17 17 17 17 17 17 17 16 16 17 17 16 17 16 16 16 16 15 15 15 15 15 14 13 13 13 13 13 12 13 13 13 13 13 12 12 12 12 12 12 12 11
17 17 17 17 16 16 16 16 16 16 16 16 16 16 16 16 16 15 15 15 15 15 15 14 13 13 13 12 12 12 12 12 12 12 12 12 12 12 12 11 11 11 11
17 17 17 16 16 16 16 16 16 16 16 16 16 16 16 15 15 15 15 15 15 14 14 14 13 13 12 12 12 12 12 11 11 11 11 11 11 11 11 11 11 11 10
17 16 16 16 16 16 16 16 16 16 16 16 16 15 15 15 15 15 14 14 14 14 14 13 13 12 12 12 12 12 11 11 11 11 11 11 11 11 11 10 10 10 10
16 16 16 16 16 16 16 15 15 15 15 15 15 15 15 15 14 14 14 14 14 13 13 13 13 12 12 12 12 11 11 11 11 11 10 10 10 10 10 10 10 10 10
16 16 16 16 15 15 15 15 15 15 15 15 15 14 14 14 14 14 14 13 13 13 13 13 13 12 12 11 12 11 11 11 11 10 10 10 10 10 10 10 10 9 9
16 16 16 15 15 15 15 15 15 14 14 14 14 14 14 14 14 14 13 13 13 13 13 13 12 12 12 11 11 11 11 11 10 10 10 10 10 10 9 9 9 9 9
16 16 16 15 15 15 15 15 15 14 14 14 14 14 14 14 13 13 13 13 13 13 12 12 12 12 11 11 11 11 10 11 10 10 10 10 10 10 9 9 9 9 9
16 16 16 15 15 15 15 15 15 14 14 14 14 13 13 13 13 13 12 12 12 12 12 12 12 11 11 11 11 10 10 10 10 10 10 10 10 9 9 9 9 9 8
16 16 15 15 15 15 15 15 14 14 14 14 13 13 13 13 13 13 12 12 12 12 12 12 12 11 11 11 10 10 10 10 10 10 10 10 10 9 9 9 9 9 8
16 15 15 15 15 15 15 15 14 14 13 13 13 13 13 13 13 13 12 12 11 11 11 11 11 11 11 11 10 10 10 10 10 10 10 9 9 9 9 9 9 9 8

GEFSMA_850_meantemp_240.txt.gz
Temperature
18 18 18 18 18 18 18 18 18 18 18 18 18 19 19 19 18 18 18 18 18 18 18 17 17 17 17 17 17 17 17 16 16 16 16 16 16 16 16 16 16 16 16
18 18 18 18 18 18 18 18 18 18 18 18 18 18 18 18 18 18 18 18 18 18 17 17 17 17 17 17 17 17 17 16 16 16 16 16 16 16 16 16 16 16 16
18 18 18 18 18 18 18 18 18 18 18 18 18 18 18 18 18 18 18 17 17 17 17 17 17 17 17 17 17 17 16 16 16 16 16 16 16 16 16 16 16 15 15
18 18 18 18 18 18 18 18 18 18 18 18 18 18 18 18 18 18 17 17 17 17 17 17 17 17 17 17 17 17 16 16 16 16 16 16 16 16 16 16 15 15 15
18 18 18 18 18 18 18 18 18 18 18 18 18 18 18 18 18 18 17 17 17 17 17 17 17 17 17 17 17 16 16 16 16 16 16 16 16 15 15 15 15 15 15
18 18 18 18 18 18 18 18 18 18 18 18 18 18 18 18 18 17 17 17 17 17 17 17 17 16 16 17 17 16 16 16 16 16 16 15 15 15 15 15 15 15 15
18 18 18 18 18 18 18 18 18 18 18 18 18 18 18 17 17 17 17 17 17 17 17 16 16 16 16 16 16 16 16 16 16 16 15 15 15 15 15 15 15 15 15
18 18 18 18 18 18 18 18 18 18 18 18 18 18 17 17 17 17 17 17 17 17 17 16 16 16 16 16 16 16 16 16 16 15 15 15 15 15 15 15 14 14 14
18 18 18 18 18 18 18 18 18 18 18 18 18 18 17 17 17 17 17 17 17 17 17 16 16 16 16 16 16 16 16 15 15 15 15 15 15 15 14 14 14 14 14
19 18 18 18 18 18 18 18 18 18 18 18 18 18 18 18 17 17 17 17 17 16 16 16 16 16 16 16 15 15 15 15 15 15 15 14 14 14 14 14 14 14 14
19 18 18 18 18 18 18 18 18 18 18 18 18 18 18 18 17 17 16 16 16 16 16 16 16 15 15 15 15 15 15 15 15 15 14 14 14 14 14 14 14 14 13
18 18 18 18 18 18 18 18 18 18 18 18 18 18 18 17 17 17 17 16 16 16 16 15 15 15 15 15 15 15 15 15 14 14 14 14 14 14 13 13 13 13 13
18 18 18 18 18 18 18 18 18 18 18 18 18 18 17 17 17 17 17 16 16 15 15 15 15 15 14 15 14 14 14 14 14 14 14 14 13 13 13 13 13 13 13
18 18 18 18 18 18 18 18 18 17 17 17 17 17 17 17 17 17 16 16 15 15 15 15 14 14 14 14 14 14 14 14 14 13 13 13 13 13 13 13 13 12 12
18 18 18 18 18 18 18 17 17 17 17 17 17 17 17 17 17 16 16 16 16 15 14 14 14 14 14 14 14 14 13 13 13 13 13 13 13 13 13 12 12 12 12
18 18 18 17 17 17 17 17 17 17 17 17 17 17 17 16 16 16 16 16 16 15 14 14 14 14 13 13 13 13 13 13 13 13 13 12 12 12 12 12 12 12 11
18 18 17 17 17 17 17 17 17 17 17 17 16 16 16 16 16 16 16 16 15 15 15 14 14 13 13 13 13 13 13 13 12 12 12 12 12 12 12 12 11 11 11
18 17 17 17 17 17 17 17 16 16 16 16 16 16 16 15 15 15 15 15 15 15 15 14 13 13 13 13 12 12 12 12 12 12 12 12 12 11 11 11 11 11 11
17 17 17 17 17 16 16 16 16 16 16 16 16 16 15 15 15 15 15 15 15 14 14 14 14 13 13 12 12 12 12 12 12 12 12 11 11 11 11 11 11 11 10
17 17 17 17 16 16 16 16 16 16 16 15 15 15 15 15 15 15 15 15 14 14 14 14 13 13 13 12 12 12 12 11 11 11 11 11 11 11 11 11 11 10 10
17 17 17 17 16 16 16 16 16 15 15 15 15 15 15 15 14 14 14 14 14 14 14 13 13 13 12 12 12 12 11 11 11 11 11 11 11 11 11 10 10 10 10
17 17 17 16 16 16 16 16 16 15 15 15 15 15 15 14 14 14 14 14 14 14 14 13 13 13 12 12 12 11 11 11 11 11 11 11 10 10 10 10 10 10 10
17 17 17 17 16 16 16 16 16 15 15 15 14 14 14 14 14 14 14 14 14 14 13 13 13 13 12 12 12 11 11 11 11 11 11 10 10 10 10 10 10 10 10
17 17 17 17 16 16 16 16 15 15 15 15 14 14 14 14 14 14 14 13 13 13 13 13 13 12 12 12 12 11 11 11 11 11 10 10 10 10 10 10 10 10 10
17 17 17 16 16 16 16 15 15 15 15 14 14 14 14 14 14 13 13 13 13 13 13 12 12 12 12 12 12 11 11 11 10 11 10 10 10 10 10 10 10 10 10
17 16 16 16 16 16 16 15 15 15 15 14 14 14 14 14 13 13 13 13 12 12 12 12 12 12 12 11 11 11 11 10 10 10 10 10 10 10 9 10 10 10 9

GEFSMA_850_meantemp_246.txt.gz
Temperature
18 18 18 18 18 18 18 18 18 18 18 18 18 18 18 18 18 18 17 17 17 17 17 17 17 17 17 17 17 16 16 16 16 16 16 16 16 16 16 16 16 16 16
18 18 18 18 18 18 18 18 18 18 18 18 18 18 18 18 18 18 18 17 17 17 17 17 17 17 17 16 16 16 16 16 16 16 16 16 16 16 16 16 16 16 16
18 18 18 18 18 18 18 18 18 18 18 18 18 18 18 17 17 17 17 17 17 17 17 17 17 17 16 16 16 16 16 16 16 16 16 16 16 16 16 15 15 15 15
18 18 18 18 18 18 18 18 18 18 18 18 18 18 18 17 17 17 17 17 17 17 17 17 17 16 16 17 16 16 16 16 16 16 16 16 15 15 15 15 15 15 15
18 18 18 18 18 18 18 18 18 18 18 18 18 18 17 17 17 17 17 17 17 17 17 16 16 16 16 16 16 16 16 16 16 16 16 15 15 15 15 15 15 15 15
18 18 18 18 18 18 18 18 18 18 18 18 18 17 17 17 17 17 17 17 17 17 17 17 16 16 16 16 16 16 16 16 16 15 15 15 15 15 15 15 15 15 15
18 18 18 18 18 18 18 18 18 18 18 17 17 17 17 17 17 17 17 17 17 17 16 16 16 16 16 16 16 16 16 16 16 15 15 15 15 15 15 15 14 14 14
18 18 18 18 18 18 18 18 18 18 18 17 17 17 17 17 17 17 17 16 16 16 16 16 16 16 16 16 16 16 16 15 15 15 15 15 15 15 15 14 14 14 14
18 18 18 18 18 18 18 18 18 18 18 17 17 17 17 17 16 16 16 16 16 16 16 16 16 16 16 16 16 15 15 15 15 15 15 15 14 14 14 14 14 14 14
18 18 18 18 18 18 18 18 18 17 17 17 17 17 17 17 16 16 16 16 16 16 16 16 16 16 15 15 15 15 15 15 15 14 14 14 14 14 14 14 14 14 14
18 18 18 18 18 18 18 18 17 17 17 17 17 17 17 17 17 16 15 15 16 15 15 15 15 15 15 15 15 15 15 15 14 14 14 14 14 14 13 13 13 13 13
18 18 18 18 18 18 18 18 18 17 17 17 17 17 17 17 17 16 16 15 15 15 15 15 15 15 15 15 15 15 15 14 14 14 14 14 13 13 13 13 13 13 13
18 18 18 18 18 18 18 17 17 17 17 17 17 17 17 17 17 16 16 15 15 15 15 15 14 15 14 14 14 14 14 14 14 14 13 13 13 13 13 13 13 13 12
18 18 18 18 18 17 17 17 17 17 17 17 17 17 17 16 16 16 16 16 15 14 14 14 14 14 14 14 14 14 14 14 13 13 13 13 13 13 13 12 12 12 12
18 18 18 18 17 17 17 17 17 17 17 17 17 16 16 16 16 16 16 16 15 14 14 14 14 14 14 14 14 13 13 13 13 13 13 12 12 12 12 12 12 12 12
18 18 18 17 17 17 17 17 17 17 17 17 16 16 16 16 16 16 15 15 15 15 14 14 14 14 14 13 13 13 13 13 13 12 12 12 12 12 12 12 11 11 11
18 18 18 17 17 17 17 17 17 17 17 16 16 16 16 16 16 15 15 15 15 15 14 14 14 13 13 13 13 13 13 12 12 12 12 12 12 11 11 11 11 11 11
18 18 17 17 17 17 17 16 16 16 16 16 16 16 15 15 15 15 15 15 15 15 14 14 13 13 13 13 12 12 12 12 12 12 12 12 11 11 11 11 11 11 11
18 17 17 17 17 17 16 16 16 16 16 16 16 15 15 15 15 15 15 15 14 14 14 14 13 13 12 12 12 12 12 12 12 11 11 11 11 11 11 11 11 10 10
18 17 17 17 17 16 16 16 16 16 15 15 15 15 15 15 15 15 14 14 14 14 14 13 13 13 12 12 12 12 11 11 11 11 11 11 11 11 11 11 10 10 10
17 17 17 17 17 16 16 16 16 15 15 15 15 15 15 15 14 14 14 14 14 14 13 13 13 12 12 12 11 11 11 11 11 11 11 11 10 10 10 10 10 10 10
17 17 17 17 16 16 16 16 15 15 15 15 15 15 14 14 14 14 14 14 14 14 13 13 13 12 12 12 12 11 11 11 10 10 10 10 10 10 10 10 10 10 10
17 17 17 17 16 16 16 15 15 15 15 15 14 14 14 14 14 14 14 14 13 13 13 13 13 13 12 12 12 11 11 11 11 10 10 10 10 10 10 10 10 10 10
17 17 17 17 16 16 16 15 15 15 15 15 14 14 14 14 14 14 14 14 13 13 13 13 13 12 12 12 11 11 11 11 10 10 10 10 10 10 10 10 10 9 9
17 17 17 17 16 16 16 15 15 15 15 14 14 14 14 14 14 13 13 13 13 13 12 12 12 12 12 11 11 11 11 10 10 10 10 10 10 10 10 10 10 9 9
17 17 17 17 16 16 16 15 15 15 15 14 14 14 14 14 14 13 13 13 13 13 12 12 12 12 11 11 11 11 11 10 10 10 10 10 10 10 9 10 10 9 9